Regional Weather Roundup
Issued by NWS Green Bay, WI

Home | Current Version | Previous Version | Text Only | Print | Product List | Glossary On
Versions: 1 2 3 4 5 6 7 8 9 10 11 12 13 14 15 16 17 18 19 20 21 22 23 24 25 26 27 28 29 30 31 32 33 34 35 36 37 38 39 40 41 42 43 44 45 46 47 48 49 50
000
ASUS43 KGRB 172011
RWRGRB

NORTH-CENTRAL AND NORTHEAST WISCONSIN REGIONAL WEATHER ROUNDUP
NATIONAL WEATHER SERVICE GREEN BAY WI
200 PM CST SUN DEC 17 2017

WIZ005-009-010>012-018-019-172100-
NORTH CENTRAL WISCONSIN

CITY           SKY/WX    TMP DP  RH WIND       PRES   REMARKS
IRONWOOD       CLOUDY    27  23  85 S7        29.99F
MANITOWISH WTR LGT SNOW  24  24 100 S3        29.97F
ARBOR VITAE    LGT SNOW  26  25  94 S6        29.98F
EAGLE RIVER    LGT SNOW  25  25 100 S3        29.98F
LAND O LAKES   LGT SNOW  25  24  97 S3        30.00F
RHINELANDER    CLOUDY    26  25  96 S3        29.99F
PHILLIPS       CLOUDY    26  25  96 S6        29.99F
ANTIGO         CLOUDY    25  25 100 E3        29.99F FOG
TOMAHAWK       CLOUDY    26  24  92 CALM      30.00F
MERRILL        CLOUDY    28  26  94 CALM      30.00F FOG
$$

WIZ013-073-172100-
NORTHEAST WISCONSIN

CITY           SKY/WX    TMP DP  RH WIND       PRES   REMARKS
IRON MOUNTAIN  CLOUDY    27  22  81 CALM      30.02F
MARINETTE      CLOUDY    32  28  85 SE6       30.05F
OCONTO         CLOUDY    31  27  87 E5        30.03F
$$

WIZ017-030-035>037-045-172100-
CENTRAL WISCONSIN

CITY           SKY/WX    TMP DP  RH WIND       PRES   REMARKS
MEDFORD        CLOUDY    26  24  93 CALM      29.98F FOG
WAUSAU         CLOUDY    27  25  92 E3        29.98F FOG
MOSINEE        CLOUDY    27  27 100 CALM      30.01F FOG
MARSHFIELD     CLOUDY    27  26  96 S3        29.98F FOG
WISC RAPIDS    CLOUDY    29  26  89 E5        30.02F FOG
STEVENS POINT  CLOUDY    27  27 100 E3        30.01S FOG
WAUPACA        CLOUDY    31  27  83 E3        30.02F FOG
SHAWANO        CLOUDY    29  26  86 NE5       30.02F
CLINTONVILLE   NOT AVBL
WAUTOMA        CLOUDY    32  27  81 SE5       30.01F HAZE
$$

WIZ038-039-048-051-172100-
FOX VALLEY

CITY           SKY/WX    TMP DP  RH WIND       PRES   REMARKS
NWS GREEN BAY  CLOUDY    32  26  78 E5        30.02F
APPLETON       CLOUDY    30  25  80 VRB5      30.00F
OSHKOSH        CLOUDY    30  27  88 E5        30.00F FOG
FOND DU LAC    CLOUDY    31  26  82 SE6       30.00F HAZE
$$

WIZ022-050-052-172100-
EAST CENTRAL WISCONSIN

CITY           SKY/WX    TMP DP  RH WIND       PRES   REMARKS
EPHRAIM        CLOUDY    31  27  85 SE5       30.03F
WASHINGTON ISL CLOUDY    30  27  88 CALM      30.05F
STURGEON BAY   CLOUDY    32  28  85 E6        30.04F
MANITOWOC      CLOUDY    31  29  92 SE5       30.03F
SHEBOYGAN      CLOUDY    31  30  96 E3        30.01F FOG
$$

LMZ563-521-522-541>543-172100-
LAKESHORE

STATION/POSITION TIME  TEMP    WIND        PRES    VSBY  WAVE
                       AIR SEA DIR/SP/G                  HT/PER
                 (UTC) (F)     (DEG/KT/KT) (MB)    (MI)  (FT/S)
SHEBOYGAN LKSHOR 2000   32     140/  6/  6 1017.0F
KEWAUNEE LKSHORE 1948   31     140/  8/ 10 1016.3F
NORTHPORT PIER   1940   32     150/  1/  5 1017.9F
SISTER BAY LKSHO 1920   33     170/  3/  5   N/A
MENOMINEE LKSHOR 1948   31     120/  6/  7 1017.0F
$$




USA.gov is the U.S. government's official web portal to all federal, state and local government web resources and services.